This is the latest recevied weather packets stored in our database for station/object CT2HRB-13. If no packets are shown the sender has not sent any weather packets the latest 10 day(s).
| Time | Temp. | Humidity | Pressure | Rain* | Wind** | Luminosity | Snow |
|---|---|---|---|---|---|---|---|
| 1777883101 | 15.56° C | 75% | 1016.4 hPa | - | - | - | - |
| 1777882802 | 15° C | 77% | 1016.5 hPa | - | - | - | - |
| 1777882501 | 14.44° C | 78% | 1016.4 hPa | - | - | - | - |
| 1777882202 | 13.89° C | 78% | 1016.5 hPa | - | - | - | - |
| 1777881902 | 13.89° C | 77% | 1016.3 hPa | - | - | - | - |
| 1777881601 | 14.44° C | 77% | 1016.5 hPa | - | - | - | - |
| 1777881301 | 14.44° C | 77% | 1016.1 hPa | - | - | - | - |
| 1777881002 | 14.44° C | 76% | 1016.3 hPa | - | - | - | - |
| 1777880702 | 15° C | 76% | 1016.1 hPa | - | - | - | - |
| 1777880401 | 15° C | 77% | 1016.1 hPa | - | - | - | - |
| 1777880101 | 14.44° C | 77% | 1016.1 hPa | - | - | - | - |
| 1777879801 | 14.44° C | 78% | 1015.8 hPa | - | - | - | - |
| 1777879501 | 13.33° C | 78% | 1016 hPa | - | - | - | - |
| 1777879202 | 13.33° C | 78% | 1015.9 hPa | - | - | - | - |
| 1777878902 | 13.33° C | 77% | 1015.8 hPa | - | - | - | - |
| 1777878601 | 13.33° C | 77% | 1015.8 hPa | - | - | - | - |
| 1777878302 | 13.89° C | 76% | 1015.8 hPa | - | - | - | - |
| 1777878001 | 13.89° C | 76% | 1015.9 hPa | - | - | - | - |
| 1777877701 | 14.44° C | 79% | 1015.7 hPa | - | - | - | - |
| 1777877401 | 13.89° C | 80% | 1015.6 hPa | - | - | - | - |
| 1777877102 | 13.33° C | 81% | 1015.6 hPa | - | - | - | - |
| 1777876802 | 12.78° C | 81% | 1015.6 hPa | - | - | - | - |
| 1777876503 | 12.22° C | 82% | 1015.4 hPa | - | - | - | - |
| 1777876202 | 12.22° C | 82% | 1015.6 hPa | - | - | - | - |
| 1777875901 | 12.22° C | 82% | 1015.6 hPa | - | - | - | - |
* Rain since midnight (hover to see other rain measurements)
** Current wind speed in m/s (hover to see current wind gust speed)